Location: Unspecified
(0.0000°N, 0.0000°E)
Time: 15:28:42
(UTC+00:00)

STARLINK-33903 - Visible Passes

Search period start: 15 June 2025 00:00
Search period end: 25 June 2025 00:00
Orbit: 462 x 463 km, 43.0° (Epoch: 15 June)

Date Brightness Start Highest point End Pass type
(mag) Time Alt. Az. Time Alt. Az. Time Alt. Az.
20 Jun 5.5 18:59:30 10° S 19:00:06 12° SSE 19:00:06 12° SSE visible
21 Jun 5.3 18:28:31 10° SSE 18:30:17 13° SE 18:32:02 10° ESE visible
21 Jun 5.6 20:05:21 10° WSW 20:06:57 22° W 20:06:57 22° W visible
22 Jun 4.4 19:34:26 10° WSW 19:38:03 44° NW 19:40:49 16° NNE visible
23 Jun 4.3 19:04:01 10° WSW 19:07:43 50° NW 19:11:24 10° NNE visible
24 Jun 4.1 18:34:05 10° SW 18:37:51 57° NW 18:41:36 10° NNE visible
